sat.trackr.live / text

‹ back to catalog

STARLINK-1320

NORAD 45572 · 2020-025AT

PAYLOAD ACTIVE UNKNOWN

§ Identity

Operator
Country
US
Launch date
2020-04-22
Launch site
AFETR
Launch vehicle
Mass (kg)
RCS (m²)

Purposes: comms

External: N2YO · Heavens-Above · Gunter

§ Orbital elements

Epoch: 2026-07-31T21:57:56.846592Z

Period
88.25 min
Inclination
53.0252°
Eccentricity
0.0011160
Mean motion
16.31732829 rev/d
Perigee alt
180.6 km
Apogee alt
195.2 km
Semi-major
6,566.0 km
B*
5.3868e-4
RAAN
336.0797°
Arg perigee
314.6137°
Mean anomaly
45.3995°
Rev number
34,968

§ Raw data

STARLINK-13201 45572U 20025AT  26212.91524128  .03041889  12159-4  53868-3 0  99952 45572  53.0252 336.0797 0011160 314.6137  45.3995 16.31732829349688

JSON: /api/v1/satellites/45572 · /tle

For live sub-satellite position, see the globe view (requires WebGL).

§ Visibility from observer

Set your observer location to see the next 7 days of passes ≥ 10°. The values pass through the URL so the page stays shareable.

No JS? Fill the form by hand. The geolocation button needs JavaScript.